Date String (YYYY-MM-DD hh:mm:ss) UTC,Instrument flags,Ambient pressure (hPa),Sample flow (lpm),Bypass flow (lpm),Sample temperature (°C),Ambient temperature (°C),ASC tube jacket temperature (°C),LED temperature (°C),Box temperature (°C),Sample RH (%),Span deviation,Mass concentration (μg/m³),Mass concentration (μg/m³),Mass concentration (μg/m³)
DateTimeUTC,F1_M11,P_M11,Q1_M11,Q2_M11,T1_M11,T2_M11,T3_M11,T4_M11,T5_M11,U1_M11,ZSPAN_M11,X0_M11,X2_M11,X1_M11
2022-02-04 10:00:00,,0832.7,5.00,0.00,21.9,22.5,00.0,30.8,23.6,05.4,0000.0,0009.67,0006.08,0005.77
2022-02-04 10:01:00,,0832.7,4.99,0.00,21.8,22.0,00.0,30.8,23.4,05.4,0000.0,0009.64,0006.07,0005.75
2022-02-04 10:02:00,,0832.7,5.01,0.00,21.7,21.6,00.0,30.8,23.1,05.5,0000.0,0009.65,0006.10,0005.79
2022-02-04 10:03:00,,0832.7,4.99,0.00,21.6,21.1,00.0,30.8,22.9,05.5,0000.0,0009.64,0006.11,0005.84
2022-02-04 10:04:00,,0832.7,4.99,0.00,21.5,20.8,00.0,30.7,22.7,05.6,0000.0,0009.26,0006.16,0005.89
2022-02-04 10:05:00,,0832.7,5.00,0.00,21.5,21.2,00.0,30.7,22.9,05.6,0000.0,0008.93,0006.11,0005.87
2022-02-04 10:06:00,,0832.7,5.00,0.00,21.6,21.9,00.0,30.7,23.2,05.5,0000.0,0008.81,0006.05,0005.83
2022-02-04 10:07:00,,0832.8,5.02,0.00,21.7,22.5,00.0,30.8,23.5,05.4,0000.0,0008.70,0005.97,0005.77
2022-02-04 10:08:00,,0832.7,5.00,0.00,21.9,22.8,00.0,30.8,23.7,05.3,0000.0,0008.68,0005.91,0005.70
2022-02-04 10:09:00,,0832.8,4.99,0.00,21.9,22.3,00.0,30.8,23.5,05.3,0000.0,0008.78,0005.83,0005.65
2022-02-04 10:10:00,,0832.7,5.00,0.00,21.8,21.8,00.0,30.8,23.3,05.3,0000.0,0008.68,0005.76,0005.59
2022-02-04 10:11:00,,0832.8,5.01,0.00,21.6,21.4,00.0,30.8,23.0,05.4,0000.0,0009.31,0005.71,0005.54
2022-02-04 10:12:00,,0832.8,5.00,0.00,21.5,21.0,00.0,30.7,22.8,05.4,0000.0,0009.32,0005.65,0005.48
2022-02-04 10:13:00,,0832.7,5.01,0.00,21.4,20.7,00.0,30.7,22.6,05.4,0000.0,0009.24,0005.52,0005.34
2022-02-04 10:14:00,,0832.7,5.00,0.00,21.4,21.0,00.0,30.7,22.8,05.4,0000.0,0009.09,0005.33,0005.16
2022-02-04 10:15:00,,0832.7,4.99,0.00,21.5,21.8,00.0,30.7,23.1,05.3,0000.0,0008.92,0005.16,0004.99
2022-02-04 10:16:00,,0832.7,5.02,0.00,21.7,22.6,00.0,30.7,23.5,05.3,0000.0,0008.76,0005.00,0004.82
2022-02-04 10:17:00,,0832.8,4.98,0.00,21.8,23.0,00.0,30.8,23.7,05.2,0000.0,0008.62,0004.86,0004.68
2022-02-04 10:18:00,,0832.7,5.00,0.00,21.9,22.7,00.0,30.8,23.6,05.2,0000.0,0008.50,0004.76,0004.57
2022-02-04 10:19:00,,0832.7,4.99,0.00,21.8,22.1,00.0,30.8,23.4,05.2,0000.0,0008.35,0004.67,0004.50
2022-02-04 10:20:00,,0832.8,5.00,0.00,21.7,21.6,00.0,30.8,23.1,05.2,0000.0,0008.02,0004.61,0004.43
2022-02-04 10:21:00,,0832.8,5.01,0.00,21.6,21.1,00.0,30.7,22.9,05.2,0000.0,0007.99,0004.50,0004.33
2022-02-04 10:22:00,,0832.8,4.99,0.00,21.4,20.8,00.0,30.7,22.7,05.2,0000.0,0007.08,0004.35,0004.20
2022-02-04 10:23:00,,0832.8,5.00,0.00,21.4,21.0,00.0,30.6,22.8,05.2,0000.0,0006.55,0004.22,0004.07
2022-02-04 10:24:00,,0832.7,5.01,0.00,21.5,21.8,00.0,30.7,23.1,05.2,0000.0,0006.31,0004.13,0003.98
2022-02-04 10:25:00,,0832.8,5.00,0.00,21.7,22.5,00.0,30.7,23.4,05.1,0000.0,0006.09,0004.10,0003.95
2022-02-04 10:26:00,,0832.7,5.01,0.00,21.8,23.0,00.0,30.8,23.7,05.1,0000.0,0005.94,0004.05,0003.91
2022-02-04 10:27:00,,0832.8,4.99,0.00,21.9,22.6,00.0,30.8,23.6,05.0,0000.0,0005.80,0003.98,0003.86
2022-02-04 10:28:00,,0832.7,5.01,0.00,21.8,22.0,00.0,30.8,23.3,05.0,0000.0,0005.68,0003.91,0003.79
2022-02-04 10:29:00,,0832.8,5.00,0.00,21.6,21.5,00.0,30.7,23.1,05.1,0000.0,0005.52,0003.83,0003.70
2022-02-04 10:30:00,,0832.8,4.99,0.00,21.5,21.1,00.0,30.7,22.8,05.1,0000.0,0005.33,0003.73,0003.60
2022-02-04 10:31:00,,0832.9,5.02,0.00,21.4,20.8,00.0,30.6,22.7,05.1,0000.0,0005.09,0003.62,0003.48
2022-02-04 10:32:00,,0832.9,4.99,0.00,21.4,21.4,00.0,30.7,22.9,05.1,0000.0,0004.76,0003.54,0003.39
2022-02-04 10:33:00,,0832.9,4.99,0.00,21.6,22.1,00.0,30.7,23.2,05.1,0000.0,0004.63,0003.48,0003.32
2022-02-04 10:34:00,,0832.8,5.01,0.00,21.7,22.7,00.0,30.7,23.5,05.0,0000.0,0004.80,0003.42,0003.26
2022-02-04 10:35:00,,0832.8,4.99,0.00,21.9,22.8,00.0,30.8,23.6,05.0,0000.0,0005.31,0003.38,0003.21
2022-02-04 10:36:00,,0832.8,5.01,0.00,21.8,22.2,00.0,30.7,23.4,05.0,0000.0,0005.26,0003.35,0003.16
2022-02-04 10:37:00,,0832.8,5.00,0.00,21.7,21.7,00.0,30.7,23.1,05.0,0000.0,0005.26,0003.33,0003.14
2022-02-04 10:38:00,,0832.8,4.99,0.00,21.6,21.3,00.0,30.7,22.9,05.1,0000.0,0005.17,0003.31,0003.12
2022-02-04 10:39:00,,0832.8,5.00,0.00,21.4,20.9,00.0,30.7,22.7,05.1,0000.0,0005.10,0003.28,0003.10
2022-02-04 10:40:00,,0832.9,5.02,0.00,21.4,21.0,00.0,30.6,22.7,05.1,0000.0,0005.09,0003.28,0003.10
2022-02-04 10:41:00,,0833.0,4.98,0.00,21.5,21.8,00.0,30.7,23.1,05.1,0000.0,0005.25,0003.34,0003.14
2022-02-04 10:42:00,,0833.0,4.99,0.00,21.7,22.5,00.0,30.7,23.4,05.0,0000.0,0005.30,0003.37,0003.18
2022-02-04 10:43:00,,0832.9,5.02,0.00,21.8,22.8,00.0,30.7,23.6,05.0,0000.0,0005.44,0003.39,0003.22
2022-02-04 10:44:00,,0832.9,4.99,0.00,21.8,22.2,00.0,30.7,23.4,05.0,0000.0,0005.47,0003.43,0003.26
2022-02-04 10:45:00,,0832.9,5.00,0.00,21.7,21.7,00.0,30.7,23.1,05.0,0000.0,0005.25,0003.45,0003.29
2022-02-04 10:46:00,,0832.9,5.00,0.00,21.5,21.3,00.0,30.7,22.9,05.0,0000.0,0004.64,0003.45,0003.31
2022-02-04 10:47:00,,0833.0,5.00,0.00,21.4,20.9,00.0,30.6,22.7,05.1,0000.0,0004.57,0003.44,0003.31
2022-02-04 10:48:00,,0833.0,5.00,0.00,21.4,21.0,00.0,30.6,22.8,05.1,0000.0,0004.57,0003.42,0003.28
2022-02-04 10:49:00,,0833.0,4.99,0.00,21.5,21.7,00.0,30.6,23.1,05.1,0000.0,0004.58,0003.39,0003.26
2022-02-04 10:50:00,,0833.1,5.02,0.00,21.6,22.4,00.0,30.7,23.4,05.0,0000.0,0004.56,0003.39,0003.25
2022-02-04 10:51:00,,0833.0,5.00,0.00,21.8,23.0,00.0,30.7,23.7,05.0,0000.0,0004.57,0003.38,0003.24
2022-02-04 10:52:00,,0833.0,5.01,0.00,22.0,23.2,00.0,30.8,23.8,05.0,0000.0,0004.56,0003.35,0003.22
2022-02-04 10:53:00,,0833.0,4.99,0.00,21.9,22.6,00.0,30.8,23.6,05.0,0000.0,0004.51,0003.32,0003.19
2022-02-04 10:54:00,,0833.1,5.00,0.00,21.8,22.1,00.0,30.8,23.4,05.0,0000.0,0004.52,0003.27,0003.15
2022-02-04 10:55:00,,0833.0,5.00,0.00,21.7,21.6,00.0,30.8,23.1,05.0,0000.0,0005.52,0003.26,0003.12
2022-02-04 10:56:00,,0833.1,5.00,0.00,21.6,21.1,00.0,30.7,23.0,05.0,0000.0,0005.44,0003.24,0003.09
2022-02-04 10:57:00,,0833.1,5.00,0.00,21.5,20.8,00.0,30.7,22.9,05.0,0000.0,0005.40,0003.23,0003.07
2022-02-04 10:58:00,,0833.0,5.01,0.00,21.4,20.9,00.0,30.7,22.8,05.0,0000.0,0005.51,0003.25,0003.06
2022-02-04 10:59:00,,0833.0,4.99,0.00,21.5,21.6,00.0,30.7,23.1,05.0,0000.0,0005.98,0003.26,0003.05
